Weather in Nikol'skoe 1

Russia / Voronezh Oblast     50°35′16″N   41°08′57″E
temp.,
°C
wind,
m/s
gust,
m/s
humid.,
%
clouds,
%
prec.,
mm/h
press.,
hPa
HPBL,
m
13 august, sat
sat1300:00+25ene51147100 0.1 1018195
03:00+24e51248100 0.1 1019306
06:00+23e6154296 0.0 1018475
09:00+28ese6103499 0.1 1018645
12:00+32ese7828100 0.0 10181224
15:00+33e7825100 0.0 10171978
18:00+32e692868 0.0 1016955
21:00+25sse234896 0.3 101756
14 august, sun
sun1400:00+23ene5105869 0.1 1017167
03:00+24ene5114889 0.1 1016207
06:00+23ene3851100 0.0 1016223
09:00+24ene594973 0.1 1016292
12:00+30ne463360 0.0 10151301
15:00+33e662496 0.0 10133131
18:00+31e672639 0.0 10131364
21:00+26e51232100 0.0 1014234
15 august, mon
mon1500:00+23e5143921 0.0 1014298
03:00+22e6134467 0.0 1015292
06:00+21ene6135472 0.0 1015317
09:00+27e793811 0.0 1015607
12:00+33e782511 0.0 10141749
15:00+35e772180 0.0 10132883
18:00+32e810264 0.0 10141345
21:00+26e915335 0.0 1016603
16 august, tue
tue1600:00+23e816325 0.0 1016494
03:00+21e6153497 0.0 1017417
06:00+19ene51245100 0.0 1017285
09:00+25e6936100 0.0 1017597
12:00+31e7822100 0.0 10151453
15:00+34ese8819100 0.0 10142217
18:00+32e71022100 0.0 1014998
21:00+28e91626100 0.0 1015660
17 august, wed
wed1700:00+27ese61327100 0.0 1016627
03:00+26e61327100 0.0 1015416
06:00+24e6142989 0.0 1015504
09:00+26e61128100 0.1 1015576
12:00+32e91021100 0.0 10141196
15:00+32e9102070 0.0 10141528
18:00+30e7102521 0.0 1014797
21:00+27ene81429100 0.0 1014437